Wind_Speed
4 5 4 4 5 5 5 6 7 8 8 8 8 8 8 8 8 9 10 10 11 11 12 12 12 12 12 12 11 9 8 7 7 7 6 4 4 4 4 5 6 6 5
2 3 2 2 3 3 4 5 6 7 8 8 8 8 7 7 7 7 8 8 9 10 10 10 10 10 10 11 10 10 8 7 6 6 6 4 3 2 2 2 3 4 3
0 1 1 1 2 2 3 4 6 7 7 7 7 7 7 7 7 7 7 7 8 8 9 9 9 9 9 9 9 9 8 7 6 5 5 4 3 2 0 1 1 1 1
2 3 2 3 3 3 4 5 6 7 7 7 7 7 7 7 7 7 7 7 8 8 8 8 9 9 8 8 8 8 8 7 6 5 5 4 4 3 2 1 2 2 2
4 5 5 5 5 5 5 6 7 7 8 8 8 8 8 9 9 9 8 9 9 9 8 8 8 9 9 8 8 8 7 7 7 6 5 5 5 5 4 3 3 3 4
6 7 7 7 7 7 7 8 8 9 9 9 10 10 10 10 11 11 10 10 10 10 10 10 10 10 10 10 9 9 8 8 7 7 6 6 7 7 6 6 6 5 5
6 7 7 8 8 8 9 9 10 10 11 12 12 13 13 13 13 12 12 12 12 12 12 12 11 11 11 11 11 11 10 10 9 8 7 7 8 8 8 8 8 8 8
7 8 8 8 9 10 10 11 12 13 14 15 16 16 16 15 15 14 14 14 14 14 14 14 13 13 13 13 13 13 12 12 11 10 9 9 9 9 10 10 10 11 11
10 10 10 11 11 12 13 14 15 16 17 18 19 19 18 18 18 17 17 17 17 16 16 16 16 16 15 15 15 15 15 14 13 12 11 11 11 11 11 11 11 12 13
12 13 13 14 14 15 16 17 18 19 20 21 21 21 21 21 21 20 20 20 20 19 19 19 19 19 18 18 18 17 17 17 15 14 14 13 13 13 13 13 13 13 14
15 15 15 16 16 17 18 19 19 20 21 22 22 23 23 23 23 23 23 24 23 23 22 22 22 22 22 22 21 20 21 20 19 18 16 16 16 15 15 15 15 14 14
18 18 18 18 19 19 20 21 21 22 22 23 24 24 25 25 25 25 25 26 26 26 26 26 25 26 26 26 26 25 24 24 22 21 19 18 18 18 17 18 18 17 16
20 21 22 22 22 23 23 23 24 23 24 24 25 26 26 26 27 27 26 27 28 28 28 28 28 28 29 29 30 28 28 27 26 25 23 22 22 21 21 21 21 20 20
24 25 25 26 26 26 26 27 26 26 26 26 26 26 27 27 27 27 28 28 28 28 29 29 29 29 30 31 31 30 29 29 30 30 28 26 25 25 25 24 24 23 23
27 28 29 29 29 28 29 29 29 28 28 28 27 27 28 28 28 28 28 28 29 29 29 29 30 30 30 32 32 33 33 32 31 32 31 29 28 28 27 27 27 27 26
30 31 32 32 31 31 30 30 30 29 28 28 28 28 28 28 29 29 29 28 27 28 28 28 28 29 30 30 31 32 32 32 32 32 32 31 31 31 29 28 28 29 29
34 35 35 34 33 32 32 32 31 30 28 28 29 29 28 28 28 28 27 26 25 26 26 26 27 28 29 29 30 31 30 31 31 31 32 33 33 32 31 30 29 29 30
38 37 37 36 35 34 33 33 31 30 29 28 28 28 27 27 27 26 25 24 24 24 24 24 25 26 27 28 29 30 31 31 31 31 31 32 32 32 32 31 30 29 29
41 39 37 37 37 36 35 33 31 29 28 28 28 27 27 26 25 24 23 23 22 22 22 22 22 23 24 26 28 29 30 31 31 32 31 31 31 31 31 32 31 31 30
40 38 37 37 38 38 36 35 33 30 29 29 28 27 26 25 24 24 23 22 22 21 21 20 21 22 23 25 27 28 29 30 31 31 31 31 31 30 31 32 31 31 31
39 41 39 38 38 38 37 36 34 31 29 29 27 25 25 25 24 23 22 21 21 21 21 21 22 23 24 26 27 28 29 30 31 31 31 31 30 31 32 31 32 31 31
39 41 39 38 38 38 36 35 33 31 30 28 27 25 24 24 23 22 22 22 21 21 22 22 23 23 24 26 28 29 29 30 31 30 30 30 30 29 30 30 31 31 31
38 38 38 38 39 39 38 36 33 32 31 30 27 25 25 24 24 23 23 23 23 23 23 23 23 24 25 27 28 30 30 29 30 30 30 30 30 30 30 29 29 30 30
37 37 39 40 40 40 39 37 34 33 32 31 29 27 26 26 25 25 25 25 25 25 25 25 25 25 26 27 29 31 31 31 30 28 29 29 29 30 30 29 29 29 28
37 38 38 37 38 38 37 37 35 34 32 31 30 29 29 29 28 28 29 29 29 28 28 28 28 28 28 28 29 30 31 31 31 29 27 29 29 30 29 28 28 27 26
35 36 36 36 37 38 38 38 37 36 34 33 33 32 32 32 32 32 32 32 33 32 32 31 31 30 30 30 30 31 31 31 31 30 27 27 28 29 29 28 28 27 27
Wind_Direction
100 97 84 76 72 62 42 29 23 22 22 23 25 26 27 26 26 29 30 32 33 32 31 30 29 27 26 25 24 23 22 27 35 43 52 63 77 89 95 93 91 93 97
103 93 77 62 55 46 26 10 4 5 8 9 10 11 11 10 11 14 17 21 25 26 26 25 24 23 21 20 19 18 16 12 15 22 32 42 57 83 108 112 103 103 105
335 37 15 356 349 351 348 345 345 346 350 354 354 354 354 352 353 355 358 3 7 12 15 16 15 14 13 12 11 11 11 6 359 358 3 12 21 32 77 167 157 148 151
311 312 312 310 308 313 319 321 326 329 332 335 337 337 335 334 333 333 336 340 343 349 357 2 3 2 3 2 359 358 359 359 353 341 333 333 332 338 328 287 264 247 240
315 312 308 305 305 306 310 311 313 315 317 320 323 325 325 324 323 321 320 323 326 329 335 341 345 347 347 347 345 341 339 340 340 337 321 305 300 302 301 296 285 274 268
313 312 310 309 310 311 311 311 311 312 313 315 317 319 320 319 318 316 313 313 315 316 320 324 328 331 333 333 333 330 326 322 320 323 322 308 293 290 288 286 283 281 277
311 312 314 316 316 316 314 313 314 314 314 313 315 316 315 315 313 312 309 308 308 308 310 313 316 318 320 322 323 323 321 317 312 307 307 307 297 289 282 280 278 275 276
309 309 310 313 315 315 313 311 311 311 312 312 313 313 312 310 308 306 304 304 304 303 303 305 307 309 312 313 314 315 316 314 309 304 297 293 294 293 284 277 276 274 275
308 307 306 306 306 307 306 305 305 305 306 307 308 307 307 306 304 302 299 298 298 297 298 299 300 301 303 303 305 307 308 308 306 303 298 290 285 286 285 281 275 274 274
307 308 308 307 306 304 304 303 304 303 303 304 303 302 302 301 300 298 295 293 292 291 291 292 293 294 295 296 296 298 300 300 300 298 295 290 284 281 279 279 276 273 272
309 310 311 313 312 310 309 307 306 305 303 302 301 299 298 297 296 295 294 291 289 288 288 287 287 287 288 288 289 289 290 291 293 293 290 286 284 280 275 273 273 272 270
311 312 315 317 316 316 314 311 309 306 304 301 298 297 295 294 292 291 290 290 289 287 285 285 284 283 282 282 283 283 282 282 284 285 285 284 281 279 276 272 269 268 267
310 313 315 318 317 316 313 311 307 305 302 299 296 294 293 291 289 288 287 286 287 287 286 284 283 282 282 280 279 279 279 278 276 278 280 279 279 277 274 271 267 264 263
308 310 312 315 315 314 312 310 307 304 301 298 296 295 294 292 291 289 288 287 285 285 284 283 283 283 283 282 280 278 278 276 273 273 274 275 276 278 275 269 266 264 260
304 307 308 310 310 310 309 307 305 304 302 299 297 295 293 292 291 290 288 288 288 288 286 284 283 283 283 282 281 281 277 276 273 272 271 271 271 275 274 270 267 262 259
300 302 303 304 305 305 304 305 304 301 301 299 297 294 292 291 290 289 287 287 287 287 288 288 288 287 287 288 287 284 283 278 276 273 271 269 268 271 272 270 268 264 259
295 296 297 297 299 299 300 301 300 300 299 296 294 293 291 290 289 288 288 287 287 287 288 290 290 289 288 288 288 286 286 283 280 277 271 271 270 268 269 268 267 265 261
291 291 291 292 293 294 296 297 298 297 295 295 293 292 290 290 288 286 285 286 287 288 290 291 293 294 293 291 290 288 288 286 282 278 275 275 273 269 266 265 267 266 263
285 285 284 286 289 290 293 295 295 294 295 295 293 290 288 287 286 284 284 285 286 287 289 292 295 298 298 298 296 293 292 289 284 280 279 279 276 272 267 262 263 263 265
279 280 280 282 285 287 289 292 293 293 293 293 292 290 286 284 282 281 281 283 285 287 290 293 298 302 303 303 301 298 294 291 289 285 281 277 274 271 269 265 262 263 263
280 279 279 279 283 285 286 289 291 290 291 291 289 285 282 280 279 279 280 282 285 286 289 292 297 302 305 307 307 304 299 294 290 287 282 278 275 271 268 267 265 261 260
278 276 274 279 282 282 286 287 289 290 291 290 286 281 278 275 275 276 278 281 283 286 288 291 296 300 304 307 309 309 305 298 293 288 283 278 274 271 268 266 265 262 260
274 275 276 283 284 287 288 288 287 288 289 287 283 278 275 273 273 273 276 278 281 284 287 290 294 298 302 304 308 310 309 303 296 290 286 280 273 268 267 265 263 261 259
275 275 279 283 285 286 289 287 285 287 287 285 280 275 272 271 271 273 274 277 279 282 285 288 290 295 299 302 305 309 310 306 301 293 286 280 273 267 265 263 263 259 258
279 282 282 282 283 286 287 287 287 288 288 284 279 275 274 273 272 273 275 277 278 280 282 285 288 291 295 299 302 305 308 307 303 297 288 280 273 268 262 261 262 261 260
284 284 285 285 284 286 287 288 287 286 285 282 279 276 275 275 273 273 274 276 277 279 280 282 285 288 291 295 299 302 305 306 302 298 291 281 274 268 263 259 259 260 260
Height
5919 5919 5918 5918 5917 5917 5917 5916 5916 5915 5914 5913 5911 5910 5909 5908 5907 5906 5905 5904 5903 5902 5901 5900 5899 5897 5896 5895 5894 5894 5893 5892 5892 5891 5891 5891 5891 5891 5891 5891 5891 5891 5892
5919 5919 5919 5918 5918 5917 5917 5917 5916 5915 5914 5913 5912 5911 5910 5909 5908 5907 5906 5905 5904 5903 5902 5901 5900 5899 5898 5897 5896 5895 5894 5893 5893 5893 5892 5892 5892 5892 5892 5892 5892 5892 5893
5919 5919 5919 5918 5918 5918 5917 5917 5916 5915 5914 5913 5913 5912 5911 5910 5909 5908 5907 5906 5905 5903 5902 5901 5900 5899 5899 5898 5897 5896 5895 5894 5894 5894 5893 5893 5893 5893 5893 5893 5893 5893 5893
5919 5919 5919 5918 5918 5917 5917 5916 5916 5915 5914 5913 5912 5912 5911 5910 5909 5908 5907 5906 5905 5904 5903 5902 5901 5900 5899 5898 5897 5896 5895 5895 5894 5894 5894 5894 5894 5893 5893 5893 5893 5894 5894
5918 5918 5918 5918 5917 5917 5916 5916 5915 5914 5914 5913 5912 5911 5910 5910 5909 5907 5906 5905 5904 5903 5902 5901 5901 5900 5899 5898 5897 5897 5896 5895 5895 5894 5894 5894 5894 5894 5893 5893 5894 5894 5894
5918 5917 5917 5917 5916 5916 5915 5915 5914 5913 5913 5912 5911 5911 5910 5909 5908 5907 5906 5905 5904 5903 5902 5901 5900 5899 5899 5898 5897 5896 5896 5895 5894 5894 5894 5894 5893 5893 5893 5893 5894 5894 5894
5917 5916 5916 5915 5915 5915 5914 5913 5913 5912 5912 5911 5910 5909 5908 5907 5906 5905 5904 5903 5902 5902 5901 5900 5899 5899 5898 5897 5896 5896 5895 5894 5894 5894 5894 5893 5893 5893 5893 5893 5893 5894 5894
5915 5915 5915 5914 5914 5913 5913 5912 5912 5911 5910 5909 5909 5907 5906 5905 5904 5903 5902 5901 5901 5900 5899 5899 5898 5897 5897 5896 5895 5894 5894 5893 5893 5893 5893 5893 5892 5892 5892 5892 5893 5893 5893
5914 5914 5913 5913 5912 5912 5911 5910 5910 5909 5908 5907 5906 5905 5904 5903 5902 5901 5900 5899 5898 5897 5897 5896 5896 5895 5894 5894 5893 5892 5891 5891 5891 5891 5891 5891 5891 5891 5891 5891 5891 5892 5892
5912 5912 5911 5911 5910 5909 5909 5908 5907 5906 5905 5904 5903 5902 5901 5900 5899 5898 5896 5895 5894 5894 5893 5893 5892 5892 5891 5891 5890 5890 5889 5888 5888 5888 5888 5888 5888 5889 5889 5889 5890 5890 5890
5909 5909 5908 5908 5907 5906 5906 5905 5904 5903 5902 5901 5899 5898 5897 5896 5895 5894 5893 5891 5891 5890 5889 5889 5888 5888 5887 5887 5886 5886 5885 5885 5885 5885 5885 5885 5885 5886 5886 5887 5887 5888 5888
5906 5906 5905 5905 5904 5903 5902 5901 5900 5899 5897 5896 5895 5894 5892 5891 5890 5889 5888 5886 5885 5885 5884 5883 5883 5882 5882 5882 5881 5881 5881 5880 5880 5881 5881 5881 5881 5882 5882 5883 5884 5884 5885
5903 5902 5902 5901 5900 5899 5898 5897 5895 5894 5893 5891 5890 5888 5887 5886 5885 5884 5883 5882 5880 5879 5878 5877 5877 5876 5876 5876 5875 5875 5875 5875 5875 5876 5877 5877 5877 5877 5878 5878 5879 5880 5881
5900 5899 5897 5897 5896 5894 5893 5892 5890 5888 5887 5886 5884 5883 5881 5880 5879 5878 5876 5875 5874 5873 5872 5871 5870 5869 5869 5868 5867 5868 5868 5869 5869 5870 5870 5871 5872 5872 5873 5873 5874 5875 5876
5895 5894 5893 5892 5891 5890 5888 5886 5885 5883 5881 5879 5878 5877 5875 5874 5872 5871 5870 5869 5867 5866 5866 5865 5864 5863 5863 5862 5860 5860 5861 5861 5862 5862 5863 5864 5865 5866 5866 5867 5868 5869 5870
5890 5889 5888 5886 5885 5884 5882 5881 5879 5877 5876 5874 5872 5871 5869 5868 5866 5865 5863 5862 5861 5860 5859 5858 5857 5856 5856 5855 5854 5853 5854 5854 5854 5855 5855 5856 5857 5858 5859 5860 5861 5862 5863
5884 5882 5881 5880 5879 5878 5876 5875 5873 5871 5870 5868 5867 5865 5863 5862 5860 5859 5858 5856 5855 5854 5853 5852 5851 5850 5849 5848 5847 5846 5846 5846 5847 5847 5847 5848 5848 5850 5852 5853 5854 5854 5856
5876 5875 5874 5872 5872 5871 5870 5868 5867 5865 5864 5862 5860 5859 5858 5856 5854 5853 5852 5851 5850 5849 5847 5846 5845 5844 5842 5841 5840 5840 5839 5839 5839 5838 5839 5840 5840 5841 5843 5845 5846 5847 5848
5867 5866 5865 5864 5864 5863 5862 5861 5860 5858 5857 5855 5854 5853 5851 5850 5849 5847 5846 5845 5844 5843 5842 5841 5840 5838 5837 5835 5834 5833 5832 5832 5831 5831 5831 5832 5832 5833 5834 5836 5837 5839 5840
5859 5855 5854 5856 5855 5855 5854 5854 5853 5851 5850 5849 5848 5846 5845 5844 5843 5842 5841 5840 5839 5838 5837 5836 5834 5833 5831 5829 5828 5827 5825 5824 5823 5823 5824 5824 5824 5825 5826 5826 5828 5830 5831
5852 5848 5846 5846 5846 5846 5845 5845 5845 5844 5843 5843 5842 5840 5839 5838 5837 5836 5835 5835 5834 5833 5831 5830 5829 5827 5825 5823 5821 5820 5818 5817 5816 5816 5815 5815 5816 5817 5818 5818 5818 5820 5822
5844 5841 5836 5835 5838 5837 5836 5837 5838 5837 5836 5836 5835 5834 5833 5832 5831 5831 5830 5829 5828 5827 5826 5825 5823 5821 5819 5816 5814 5813 5812 5811 5808 5808 5807 5807 5807 5807 5808 5809 5811 5812 5814
5836 5834 5829 5831 5833 5832 5831 5830 5830 5829 5829 5829 5828 5827 5827 5826 5825 5825 5824 5823 5822 5822 5820 5819 5817 5815 5813 5811 5807 5805 5804 5803 5801 5800 5799 5799 5799 5799 5800 5801 5802 5804 5805
5828 5826 5826 5825 5826 5825 5824 5824 5822 5822 5822 5821 5821 5820 5820 5820 5819 5819 5818 5817 5816 5815 5814 5812 5811 5809 5807 5805 5801 5798 5796 5794 5792 5792 5791 5790 5790 5791 5791 5792 5794 5795 5797
5822 5820 5818 5818 5818 5817 5817 5816 5815 5814 5814 5813 5813 5812 5812 5812 5812 5812 5811 5810 5809 5808 5807 5806 5804 5802 5800 5798 5795 5792 5789 5786 5783 5783 5783 5782 5782 5782 5783 5785 5786 5787 5789
5818 5816 5815 5813 5811 5810 5808 5807 5807 5806 5806 5805 5805 5804 5804 5804 5804 5804 5803 5803 5802 5801 5800 5798 5797 5795 5793 5790 5788 5785 5782 5779 5776 5774 5774 5774 5774 5774 5775 5777 5778 5779 5781